This is the latest recevied weather packets stored in our database for station/object KC9NPJ-13. If no packets are shown the sender has not sent any weather packets the latest 10 day(s).
| Time | Temp. | Humidity | Pressure | Rain* | Wind** | Luminosity | Snow |
|---|---|---|---|---|---|---|---|
| 1777873447 | 12.78° C | 75% | 1010.5 hPa | 0 mm | - | - | - |
| 1777873147 | 12.22° C | 74% | 1010.4 hPa | 0 mm | - | - | - |
| 1777872847 | 12.22° C | 75% | 1010.5 hPa | 0 mm | - | - | - |
| 1777872547 | 12.22° C | 75% | 1010.6 hPa | 0 mm | - | - | - |
| 1777872247 | 12.22° C | 76% | 1010.7 hPa | 0 mm | - | - | - |
| 1777871947 | 12.22° C | 76% | 1010.8 hPa | 0 mm | - | - | - |
| 1777871647 | 12.78° C | 75% | 1010.9 hPa | 0 mm | - | - | - |
| 1777871347 | 12.78° C | 69% | 1010.8 hPa | 0 mm | - | - | - |
| 1777871047 | 13.33° C | 69% | 1010.9 hPa | 0 mm | - | - | - |
| 1777870747 | 13.33° C | 68% | 1011 hPa | 0 mm | - | - | - |
| 1777870447 | 13.33° C | 67% | 1011 hPa | 0 mm | - | - | - |
| 1777870147 | 13.33° C | 66% | 1011.2 hPa | 0 mm | - | - | - |
| 1777869847 | 13.33° C | 66% | 1011.2 hPa | 0 mm | - | - | - |
| 1777869547 | 13.33° C | 66% | 1011.3 hPa | 0 mm | - | - | - |
| 1777869247 | 13.89° C | 66% | 1011.2 hPa | 0 mm | - | - | - |
| 1777868947 | 13.89° C | 65% | 1011.4 hPa | 0 mm | - | - | - |
| 1777868647 | 13.89° C | 65% | 1011.5 hPa | 0 mm | - | - | - |
| 1777868347 | 13.89° C | 65% | 1011.5 hPa | 0 mm | - | - | - |
| 1777868047 | 13.89° C | 65% | 1011.6 hPa | 0 mm | - | - | - |
| 1777867747 | 14.44° C | 65% | 1011.7 hPa | 0 mm | - | - | - |
| 1777867447 | 14.44° C | 65% | 1011.8 hPa | 0 mm | - | - | - |
| 1777867147 | 14.44° C | 66% | 1011.8 hPa | 0 mm | - | - | - |
| 1777866847 | 14.44° C | 65% | 1011.9 hPa | 0 mm | - | - | - |
| 1777866547 | 14.44° C | 65% | 1011.8 hPa | 0 mm | - | - | - |
| 1777866247 | 14.44° C | 65% | 1011.8 hPa | 0 mm | - | - | - |
* Rain latest hour (hover to see other rain measurements)
** Current wind speed in m/s (hover to see current wind gust speed)